Date String (YYYY-MM-DD hh:mm:ss) UTC,Instrument flags,absolute air pressure of the measurement (hPa),sample flow rate (lpm),inlet stack bypass flow (lpm),air temperature of the measurement (°C),ambient temperature measured by the external sensor (°C),aerosol sample conditioner tube jacket temperature (°C),OPC LED temperature (°C),internal box temperature (°C),relative humidity of the measurement (%),span deviation,mass concentration of particles derived from Lorenz-Mie calculation of OPC scattering (μg/m³),mass concentration of particles derived from Lorenz-Mie calculation of OPC scattering (μg/m³),mass concentration of particles derived from Lorenz-Mie calculation of OPC scattering (μg/m³)
DateTimeUTC,F1_M11,P_M11,Q1_M11,Q2_M11,T1_M11,T2_M11,T3_M11,T4_M11,T5_M11,U1_M11,ZSPAN_M11,X0_M11,X2_M11,X1_M11
2023-07-07 16:00:00,SystemResetWarning,0831.9,5.00,000.00,029.3,028.1,000.0,037.8,030.9,28.2,0000.0,0008.16,0005.03,0004.50
2023-07-07 16:01:00,SystemResetWarning,0831.9,4.99,000.00,029.4,028.2,000.0,037.8,031.0,28.1,0000.0,0007.99,0004.98,0004.50
2023-07-07 16:02:00,SystemResetWarning,0831.9,5.00,000.00,029.4,028.2,000.0,037.8,031.0,28.4,0000.0,0008.07,0005.01,0004.49
2023-07-07 16:03:00,SystemResetWarning,0831.9,5.00,000.00,029.4,028.1,000.0,037.8,031.0,28.5,0000.0,0008.05,0005.00,0004.48
2023-07-07 16:04:00,SystemResetWarning,0831.9,5.00,000.00,029.4,026.6,000.0,037.7,030.9,28.0,0000.0,0008.05,0005.01,0004.49
2023-07-07 16:05:00,SystemResetWarning,0831.8,5.00,000.00,029.3,025.3,000.0,037.6,030.6,28.6,0000.0,0008.05,0005.01,0004.50
2023-07-07 16:06:00,SystemResetWarning,0831.8,5.01,000.00,029.2,025.1,000.0,037.5,030.4,29.2,0000.0,0008.07,0005.04,0004.51
2023-07-07 16:07:00,SystemResetWarning,0831.8,5.01,000.00,029.1,025.4,000.0,037.6,030.3,29.0,0000.0,0008.10,0005.05,0004.50
2023-07-07 16:08:00,SystemResetWarning,0831.9,4.98,000.00,029.1,025.8,000.0,037.6,030.3,27.9,0000.0,0008.19,0005.04,0004.49
2023-07-07 16:09:00,SystemResetWarning,0831.9,4.99,000.00,029.1,026.2,000.0,037.6,030.4,28.0,0000.0,0008.72,0005.00,0004.49
2023-07-07 16:10:00,SystemResetWarning,0831.9,5.01,000.00,029.0,026.5,000.0,037.6,030.5,28.9,0000.0,0008.84,0005.02,0004.49
2023-07-07 16:11:00,SystemResetWarning,0831.8,5.01,000.00,029.1,026.8,000.0,037.6,030.5,30.4,0000.0,0009.28,0005.05,0004.51
2023-07-07 16:12:00,SystemResetWarning,0831.8,4.99,000.00,029.1,027.1,000.0,037.6,030.6,29.1,0000.0,0009.50,0005.12,0004.53
2023-07-07 16:13:00,SystemResetWarning,0831.8,4.99,000.00,029.1,027.3,000.0,037.6,030.6,29.4,0000.0,0009.52,0005.13,0004.55
2023-07-07 16:14:00,SystemResetWarning,0831.8,5.00,000.00,029.1,027.5,000.0,037.6,030.7,29.5,0000.0,0009.66,0005.16,0004.56
2023-07-07 16:15:00,SystemResetWarning,0831.8,5.01,000.00,029.1,027.6,000.0,037.6,030.7,28.3,0000.0,0009.85,0005.23,0004.57
2023-07-07 16:16:00,SystemResetWarning,0831.8,5.01,000.00,029.2,027.8,000.0,037.7,030.8,29.1,0000.0,0009.96,0005.27,0004.58
2023-07-07 16:17:00,SystemResetWarning,0831.8,5.00,000.00,029.2,027.9,000.0,037.7,030.8,28.6,0000.0,0009.94,0005.27,0004.59
2023-07-07 16:18:00,SystemResetWarning,0831.8,4.99,000.00,029.2,028.0,000.0,037.7,030.8,27.7,0000.0,0010.03,0005.29,0004.60
2023-07-07 16:19:00,SystemResetWarning,0831.8,5.00,000.00,029.3,028.1,000.0,037.7,030.9,28.6,0000.0,0010.04,0005.29,0004.61
2023-07-07 16:20:00,SystemResetWarning,0831.8,5.01,000.00,029.3,028.1,000.0,037.7,030.9,28.9,0000.0,0009.44,0005.31,0004.63
2023-07-07 16:21:00,SystemResetWarning,0831.9,5.00,000.00,029.3,028.2,000.0,037.7,031.0,30.2,0000.0,0009.32,0005.32,0004.64
2023-07-07 16:22:00,SystemResetWarning,0831.9,4.98,000.00,029.4,027.7,000.0,037.7,031.0,30.5,0000.0,0008.97,0005.30,0004.64
2023-07-07 16:23:00,SystemResetWarning,0831.8,5.00,000.00,029.3,026.3,000.0,037.6,030.8,30.3,0000.0,0009.16,0005.29,0004.65
2023-07-07 16:24:00,SystemResetWarning,0831.8,5.00,000.00,029.3,026.0,000.0,037.5,030.7,29.8,0000.0,0009.15,0005.29,0004.64
2023-07-07 16:25:00,SystemResetWarning,0831.8,5.00,000.00,029.2,026.1,000.0,037.6,030.6,29.7,0000.0,0009.01,0005.29,0004.64
2023-07-07 16:26:00,SystemResetWarning,0831.8,5.02,000.00,029.2,026.4,000.0,037.6,030.6,31.1,0000.0,0008.92,0005.25,0004.65
2023-07-07 16:27:00,SystemResetWarning,0831.9,5.00,000.00,029.2,026.8,000.0,037.6,030.6,28.7,0000.0,0008.91,0005.23,0004.65
2023-07-07 16:28:00,SystemResetWarning,0831.9,4.98,000.00,029.2,027.0,000.0,037.7,030.7,28.4,0000.0,0008.87,0005.22,0004.66
2023-07-07 16:29:00,SystemResetWarning,0831.9,5.00,000.00,029.2,027.3,000.0,037.7,030.7,28.3,0000.0,0008.83,0005.23,0004.65
2023-07-07 16:30:00,SystemResetWarning,0831.9,5.01,000.00,029.2,027.5,000.0,037.7,030.8,29.2,0000.0,0008.81,0005.20,0004.66
2023-07-07 16:31:00,SystemResetWarning,0831.9,5.01,000.00,029.2,027.7,000.0,037.7,030.8,30.0,0000.0,0008.88,0005.23,0004.67
2023-07-07 16:32:00,SystemResetWarning,0831.9,4.99,000.00,029.3,027.8,000.0,037.7,030.8,29.8,0000.0,0008.84,0005.21,0004.67
2023-07-07 16:33:00,SystemResetWarning,0831.9,4.99,000.00,029.3,027.9,000.0,037.7,030.9,30.2,0000.0,0009.11,0005.20,0004.66
2023-07-07 16:34:00,SystemResetWarning,0831.9,4.99,000.00,029.3,028.0,000.0,037.8,030.9,29.9,0000.0,0008.84,0005.16,0004.66
2023-07-07 16:35:00,SystemResetWarning,0831.9,5.00,000.00,029.3,027.3,000.0,037.7,030.9,30.4,0000.0,0008.74,0005.17,0004.67
2023-07-07 16:36:00,SystemResetWarning,0831.9,5.00,000.00,029.3,025.6,000.0,037.6,030.7,30.1,0000.0,0008.73,0005.17,0004.67
2023-07-07 16:37:00,SystemResetWarning,0831.9,5.01,000.00,029.2,025.0,000.0,037.5,030.5,29.8,0000.2,0008.75,0005.18,0004.68
2023-07-07 16:38:00,SystemResetWarning,0831.9,5.01,000.00,029.1,025.1,000.0,037.5,030.3,29.4,0001.1,0008.65,0005.17,0004.68
2023-07-07 16:39:00,SystemResetWarning,0831.9,4.99,000.00,029.0,025.5,000.0,037.5,030.3,29.9,0001.6,0008.67,0005.18,0004.67
2023-07-07 16:40:00,SystemResetWarning,0831.9,5.00,000.00,029.0,025.9,000.0,037.5,030.3,29.7,0001.5,0008.74,0005.18,0004.68
2023-07-07 16:41:00,SystemResetWarning,0831.9,5.00,000.00,029.0,026.3,000.0,037.5,030.4,30.3,0001.4,0008.67,0005.18,0004.68
2023-07-07 16:42:00,SystemResetWarning,0831.9,5.00,000.00,029.0,026.7,000.0,037.5,030.5,31.3,0001.1,0008.57,0005.16,0004.67
2023-07-07 16:43:00,SystemResetWarning,0831.9,4.99,000.00,029.0,027.0,000.0,037.6,030.5,30.7,0000.7,0008.76,0005.19,0004.68
2023-07-07 16:44:00,SystemResetWarning,0831.9,5.00,000.00,029.0,027.2,000.0,037.6,030.6,29.7,0000.3,0008.66,0005.23,0004.70
2023-07-07 16:45:00,SystemResetWarning,0831.9,5.01,000.00,029.1,027.4,000.0,037.6,030.6,29.6,-000.4,0008.74,0005.27,0004.71
2023-07-07 16:46:00,SystemResetWarning,0832.0,5.01,000.00,029.1,027.6,000.0,037.6,030.7,30.0,-000.9,0008.70,0005.25,0004.71
2023-07-07 16:47:00,SystemResetWarning,0832.0,5.00,000.00,029.1,027.7,000.0,037.6,030.7,29.5,-001.9,0008.58,0005.21,0004.70
2023-07-07 16:48:00,SystemResetWarning,0832.0,4.99,000.00,029.1,027.9,000.0,037.6,030.8,30.3,-002.4,0008.48,0005.20,0004.71
2023-07-07 16:49:00,SystemResetWarning,0832.0,5.00,000.00,029.2,028.0,000.0,037.6,030.8,29.7,-002.8,0008.47,0005.20,0004.71
2023-07-07 16:50:00,SystemResetWarning,0832.0,5.02,000.00,029.2,028.1,000.0,037.6,030.9,30.8,-002.9,0008.51,0005.22,0004.71
2023-07-07 16:51:00,SystemResetWarning,0832.0,4.97,000.00,029.2,027.3,000.0,037.6,030.9,29.0,-000.3,0008.39,0005.20,0004.71
2023-07-07 16:52:00,SystemResetWarning,0832.0,5.00,000.00,029.2,025.6,000.0,037.5,030.7,29.3,0000.0,0008.54,0005.19,0004.70
2023-07-07 16:53:00,SystemResetWarning,0832.0,5.01,000.00,029.1,024.9,000.0,037.4,030.5,29.2,0000.0,0008.60,0005.18,0004.70
2023-07-07 16:54:00,SystemResetWarning,0832.0,5.01,000.00,029.0,025.1,000.0,037.4,030.3,29.9,0000.0,0008.53,0005.14,0004.69
2023-07-07 16:55:00,SystemResetWarning,0832.0,4.99,000.00,029.0,025.5,000.0,037.4,030.2,29.8,0000.0,0008.37,0005.11,0004.68
2023-07-07 16:56:00,SystemResetWarning,0832.0,5.00,000.00,028.9,025.9,000.0,037.4,030.3,29.8,0000.0,0008.26,0005.08,0004.67
2023-07-07 16:57:00,SystemResetWarning,0832.0,5.01,000.00,028.9,026.3,000.0,037.5,030.4,30.0,0000.0,0008.32,0005.09,0004.67
2023-07-07 16:58:00,SystemResetWarning,0832.0,5.00,000.00,028.9,026.6,000.0,037.5,030.4,29.9,0000.0,0008.44,0005.13,0004.68
2023-07-07 16:59:00,SystemResetWarning,0832.0,4.99,000.00,029.0,026.9,000.0,037.5,030.5,29.6,0000.0,0008.53,0005.14,0004.67
